Location: Moscow
(55.7500°N, 37.5830°E)
Time: 03:42:59
(UTC+03:00)

Kosmos-337 - Pass Details

Date: 03 July 2022
Orbit: 1467 x 1552 km, 74.0° (Epoch: 13 August)

Event Time Altitude Azimuth Distance (km) Brightness Sun altitude
Rises 23:27:48 0° 324° (NW) 4,734 ? -10.1°
Reaches altitude 10° 23:31:00 10° 330° (NNW) 3,751 ? -10.2°
Maximum altitude 23:39:46 46° 42° (NE) 2,008 ? -10.5°
Drops below altitude 10° 23:48:26 10° 114° (ESE) 3,715 ? -10.7°
Sets 23:51:35 0° 121° (ESE) 4,685 ? -10.8°
